Wind_Speed
46 45 45 45 45 46 48 50 53 54 55 56 56 57 58 60 62 63 63 63 62 61 61 62 63 64 66 68 69 69 68 67 66 65 66 70 68 63 60 59 58 56 56 56 56 57 57 57 56 57 58 59 60 62 64 65 66 65 66 68 70 72 73 72 70 69 67 66 64 62 60 57 55 53 51 49 47 47 47 47 46 45 44 45 46 45 44 45
48 47 47 46 46 46 47 48 51 53 55 57 57 57 58 59 61 62 63 64 64 63 62 61 62 62 63 65 67 68 69 68 66 65 69 72 66 63 64 62 61 59 57 56 55 54 54 54 54 55 56 56 57 58 59 60 60 62 64 67 70 73 73 72 70 69 68 67 65 63 61 58 56 53 51 50 48 48 48 47 46 45 45 46 46 45 44 44
50 49 49 48 47 47 48 48 49 51 54 56 58 58 58 59 60 61 62 63 64 64 63 62 61 61 62 63 64 66 68 69 67 68 72 69 64 65 66 64 63 62 60 57 55 53 52 52 53 54 55 55 55 55 56 56 56 59 61 65 70 72 72 71 70 70 69 68 66 64 61 58 56 54 52 51 49 49 49 48 47 46 45 46 46 44 44 44
50 50 50 50 49 49 49 50 50 51 52 54 57 59 60 60 60 60 61 62 63 64 64 63 62 61 61 62 63 64 66 67 67 69 71 67 65 66 66 66 65 64 62 59 57 55 53 52 53 54 54 54 54 53 54 54 55 56 59 64 68 68 69 70 70 70 69 68 66 65 62 59 58 56 53 52 52 51 50 49 48 47 46 46 45 44 43 43
50 51 51 51 51 51 50 51 51 52 52 53 55 58 60 61 61 61 61 61 62 63 63 64 64 63 62 61 61 63 64 64 66 68 68 67 67 66 66 66 65 65 63 60 58 56 54 53 53 53 53 53 52 53 53 53 54 55 58 61 62 63 65 67 67 68 68 68 67 65 63 60 59 57 55 54 54 53 52 51 50 49 47 46 45 44 43 44
51 51 51 51 51 51 51 52 52 53 54 55 55 56 58 61 63 63 62 61 61 62 62 63 64 64 63 62 61 62 63 63 63 65 67 67 67 67 67 66 65 65 63 62 60 58 56 55 54 54 54 53 52 53 53 52 53 54 58 58 58 59 61 61 63 65 66 66 66 65 63 61 60 58 57 56 56 55 54 53 51 50 48 48 46 44 44 43
51 51 51 51 51 51 52 52 52 53 55 56 57 57 57 59 62 63 63 62 62 61 61 62 63 64 64 63 61 61 61 62 62 63 65 66 68 68 67 66 66 65 63 62 61 60 58 57 56 56 55 53 52 54 52 51 52 54 57 56 56 56 56 57 59 61 63 64 65 64 63 62 61 59 58 57 57 57 56 55 53 51 50 49 48 45 44 44
51 51 52 51 51 52 52 52 53 53 55 57 59 60 59 59 59 61 63 63 63 62 61 62 62 63 64 63 63 61 60 63 63 63 65 66 67 68 67 66 65 65 64 63 62 61 60 58 58 57 56 54 54 54 51 50 51 55 56 55 54 54 54 54 55 57 59 60 62 62 62 62 61 60 59 58 58 59 58 56 54 53 51 50 49 47 46 45
51 51 52 52 52 52 53 53 53 54 55 57 59 61 62 61 59 60 61 62 64 63 62 62 62 63 63 63 63 61 63 65 63 63 64 65 66 67 66 65 65 65 64 64 63 62 59 59 59 59 58 57 56 54 51 49 51 55 55 53 52 51 51 52 52 53 54 55 57 58 59 60 60 60 60 59 60 62 60 58 55 54 52 51 50 49 48 46
51 52 52 52 52 53 54 54 54 54 55 56 59 62 63 63 62 60 59 60 62 64 64 63 62 62 62 62 62 62 67 67 63 63 64 65 65 65 65 65 65 65 65 64 63 62 61 61 62 61 60 58 56 54 51 50 52 55 53 50 50 49 49 49 49 50 51 52 53 54 55 57 58 59 61 61 62 63 61 59 57 55 54 52 51 50 48 47
52 52 53 53 53 53 55 55 56 56 56 56 58 62 64 65 64 61 59 59 61 63 65 64 63 62 61 61 60 64 71 68 64 64 63 64 65 64 64 64 64 65 64 64 63 63 63 63 63 62 61 59 58 56 53 52 53 54 52 50 50 48 47 47 48 49 49 50 51 52 52 53 55 57 60 61 62 63 63 60 58 56 55 53 52 51 50 49
54 53 53 54 54 55 56 56 57 57 57 57 58 61 64 66 66 64 61 60 60 62 63 64 64 63 62 59 60 67 71 68 65 64 62 63 64 63 63 63 64 64 64 64 63 64 65 65 64 61 61 60 60 58 55 54 54 54 52 50 50 48 46 47 48 48 48 49 51 51 51 51 53 55 57 59 61 63 62 61 59 57 56 54 53 51 51 51
56 55 54 55 56 57 57 58 59 59 59 58 58 59 63 66 67 66 64 62 60 60 60 63 64 64 62 58 64 70 68 66 66 65 64 64 64 64 63 63 64 65 65 64 65 66 66 66 64 63 62 61 60 59 57 56 56 56 54 52 51 48 46 46 47 47 48 49 51 51 51 52 53 53 54 56 58 61 62 61 60 59 57 56 55 54 53 53
57 57 56 56 57 58 59 60 60 60 60 59 58 59 62 66 68 68 67 65 62 59 58 60 62 64 62 60 68 70 66 66 66 67 69 67 65 65 64 64 65 65 65 66 67 68 67 66 65 64 63 61 61 60 58 58 57 57 56 54 52 49 48 48 47 46 47 48 50 51 53 54 52 51 51 52 54 57 60 61 61 60 58 57 58 57 56 55
59 58 58 57 57 59 60 61 62 62 61 60 59 58 60 65 68 70 69 67 65 62 60 58 59 62 61 64 71 69 66 67 66 68 71 70 68 66 66 66 65 66 67 68 69 68 68 66 64 63 62 62 63 61 59 58 57 56 56 54 53 51 51 50 48 47 46 47 49 51 55 54 50 49 48 49 50 53 56 58 60 60 59 58 59 58 57 56
60 60 60 59 59 60 61 62 63 63 62 61 59 58 60 63 68 70 70 69 66 64 62 59 58 59 61 67 73 70 68 69 68 68 68 69 70 68 67 67 66 67 68 70 70 69 68 66 64 63 63 64 63 60 60 58 57 55 54 53 52 52 52 52 50 49 48 48 49 52 55 53 48 47 47 47 49 51 53 55 57 58 59 60 60 58 57 57
62 61 61 61 61 61 62 63 64 64 63 62 60 59 59 62 67 70 71 70 68 66 64 61 60 59 61 68 73 72 70 69 67 65 64 67 71 70 68 67 67 68 69 71 71 69 68 65 64 63 63 62 61 60 60 57 55 53 52 52 52 52 53 52 51 51 50 50 51 54 55 53 49 47 45 45 48 50 51 52 54 56 58 60 60 59 58 58
63 62 62 62 63 63 63 64 65 64 63 62 61 60 60 61 65 69 70 70 69 67 65 63 62 60 61 67 72 72 71 68 66 63 62 65 70 72 69 68 69 69 70 71 69 68 67 65 64 64 62 61 59 58 55 53 53 53 52 52 53 53 53 53 53 53 52 52 54 55 56 53 50 47 45 45 48 50 49 50 51 53 56 58 60 60 59 59
64 63 63 64 65 65 65 65 65 64 63 62 61 61 60 61 64 66 68 69 69 69 67 65 64 62 63 67 71 72 72 70 67 64 63 65 70 73 72 71 70 69 70 69 67 67 65 64 64 61 59 58 57 56 53 52 53 53 53 54 54 55 55 55 55 55 55 55 56 57 57 54 51 48 47 46 47 48 48 47 48 49 52 55 58 59 60 59
66 65 64 65 66 67 67 66 65 64 63 63 62 61 60 60 63 65 66 68 70 71 70 67 65 65 66 68 70 71 72 71 69 66 65 66 69 72 74 74 72 70 68 67 66 66 65 63 59 56 56 57 58 56 55 54 55 54 53 54 55 56 56 56 57 57 57 57 58 60 59 56 53 50 48 45 44 45 46 46 46 47 49 52 55 57 58 59
67 66 66 66 67 68 68 67 65 64 63 63 63 61 60 60 62 64 66 68 70 71 71 69 68 67 69 70 69 70 71 71 70 67 66 66 68 70 73 75 73 70 68 67 66 65 63 59 55 55 57 59 59 57 56 56 57 56 54 54 55 56 57 57 58 59 59 59 61 63 61 57 54 51 48 46 43 44 45 44 44 45 47 49 50 51 55 58
69 68 68 68 68 68 69 68 65 63 63 63 63 61 60 60 61 63 66 69 71 72 72 72 71 71 73 71 68 69 69 69 70 68 66 66 67 68 71 75 74 71 70 69 67 63 59 54 54 57 58 59 59 58 57 57 57 56 54 54 55 56 57 58 60 61 60 60 63 63 62 59 56 51 49 47 44 43 40 38 40 42 44 46 47 48 51 55
70 70 69 68 68 68 68 68 65 63 63 63 62 60 59 60 61 62 66 69 73 74 74 73 72 73 75 71 68 68 67 68 70 69 66 65 65 66 70 74 75 73 72 69 65 62 57 54 55 57 58 60 59 57 56 56 56 54 53 54 55 56 57 58 61 61 60 62 64 64 63 60 57 52 49 46 43 40 35 32 36 40 42 45 47 48 50 53
72 71 70 69 68 67 67 67 65 63 63 62 61 61 60 60 61 63 66 69 73 75 74 73 71 73 75 71 68 67 67 69 70 69 67 64 65 66 68 72 76 75 71 68 66 63 59 57 57 58 59 60 58 57 55 54 53 52 52 52 54 56 57 59 62 61 61 64 64 64 63 60 56 52 48 46 42 36 31 30 33 35 39 44 45 49 52 52
71 70 69 68 67 66 65 65 64 63 63 61 61 61 61 61 62 65 67 69 73 74 72 72 73 74 74 70 66 66 67 68 69 69 67 64 64 65 66 71 75 74 72 70 68 64 61 59 59 59 59 59 57 56 54 53 52 51 51 52 55 57 58 60 61 59 60 62 62 62 62 59 55 52 49 46 42 36 31 32 35 32 35 43 43 46 52 53
69 68 68 67 66 64 63 63 63 62 61 60 60 61 61 62 64 66 67 68 72 73 70 72 75 74 71 68 66 67 69 69 70 70 67 64 64 65 65 68 73 75 74 72 70 66 62 60 60 60 60 59 58 55 54 53 53 51 51 53 57 59 60 60 59 58 59 60 60 61 60 57 54 51 48 46 44 40 38 39 40 37 37 42 42 43 50 53
67 65 64 65 64 62 61 61 61 60 59 58 59 60 60 63 64 66 67 68 71 72 69 71 74 72 68 68 67 68 70 71 71 70 66 65 65 65 64 65 70 75 76 74 70 66 63 62 62 61 61 60 57 54 53 53 53 52 53 56 60 61 61 60 59 58 59 61 61 59 57 54 51 49 48 48 46 44 43 43 43 40 40 43 43 44 48 50
64 62 61 61 61 61 60 59 59 57 55 54 56 57 59 62 64 65 67 68 70 70 68 70 72 70 67 67 67 68 71 73 71 68 67 67 66 65 64 64 68 74 76 74 69 66 65 64 63 62 61 58 54 53 54 55 55 54 57 61 63 63 62 61 59 59 60 63 60 56 53 51 48 47 47 48 47 46 46 46 45 47 49 47 46 46 45 45
60 58 57 57 58 58 57 57 56 53 51 52 54 56 59 61 62 64 66 67 68 68 67 67 68 67 65 64 65 69 72 72 69 68 69 68 67 66 64 63 67 72 76 74 70 68 67 65 65 65 61 57 55 56 57 57 57 58 62 64 65 65 64 62 61 60 62 62 57 51 48 47 46 46 46 46 44 44 46 48 50 55 57 54 52 51 47 43
55 54 53 53 54 54 54 55 53 49 49 51 53 55 57 59 60 62 64 66 66 66 66 65 65 65 63 61 64 69 72 71 69 69 69 68 67 66 64 65 67 71 75 75 73 71 69 68 68 66 62 59 60 60 60 60 59 62 66 66 66 66 65 63 61 61 63 58 51 46 44 45 46 45 45 44 44 45 48 51 55 58 59 59 58 55 50 47
48 47 48 49 49 50 52 52 50 49 50 51 53 54 55 56 58 59 62 64 64 63 63 62 61 62 60 60 65 70 71 69 69 69 68 67 66 64 63 63 64 67 71 74 73 72 71 69 67 65 63 63 63 63 63 62 62 66 69 68 68 68 66 64 61 61 57 49 46 45 43 44 44 43 43 44 47 50 52 55 57 59 59 60 60 57 54 52
41 42 43 43 43 46 48 49 48 49 51 51 52 52 52 52 54 56 60 61 61 60 59 58 59 59 59 61 65 68 69 68 68 68 67 66 64 62 60 58 58 61 65 68 71 73 72 69 66 66 65 63 63 64 64 63 63 68 71 69 68 67 65 62 58 55 47 42 46 47 45 44 42 41 44 46 49 52 53 54 57 58 59 59 59 57 56 55
35 36 36 37 39 41 42 44 47 50 51 50 49 50 49 49 52 56 59 59 58 57 56 57 57 58 59 62 65 67 67 67 67 67 67 65 63 62 60 58 58 60 62 65 69 71 71 70 68 67 64 62 63 62 62 60 62 67 69 66 65 64 62 57 54 50 43 43 48 49 48 44 40 42 45 46 48 50 51 51 55 58 58 58 57 55 54 54
30 30 31 32 34 34 37 42 47 50 50 49 48 48 47 49 53 56 56 57 56 54 54 55 56 57 60 62 65 66 66 65 66 66 65 64 62 60 59 57 58 59 62 66 68 68 69 68 65 63 61 61 61 60 60 61 63 67 68 66 64 62 59 56 54 50 45 47 51 51 49 44 39 41 44 44 45 47 48 50 55 57 54 55 56 54 52 52
25 25 27 28 29 31 36 41 46 49 49 48 48 46 46 50 54 54 54 55 53 53 53 54 55 58 60 62 64 65 66 66 65 64 62 61 59 58 56 56 57 59 62 64 65 66 67 64 61 62 62 62 61 61 64 66 67 69 70 68 63 59 58 58 57 54 51 53 56 54 49 43 39 40 42 42 42 43 46 50 54 55 53 54 55 54 53 52
21 22 23 25 27 31 36 40 44 47 48 48 46 45 48 52 53 52 53 53 52 52 52 53 55 58 60 61 62 63 64 64 64 63 61 59 57 56 55 55 57 59 62 62 62 63 62 61 62 64 64 64 63 64 66 67 67 69 70 65 58 58 62 63 60 57 56 57 57 53 47 42 40 41 41 41 39 38 41 46 50 53 55 57 56 55 54 53
18 19 21 24 27 31 35 39 41 44 46 46 45 47 51 52 51 52 53 52 51 51 52 54 55 57 59 60 61 62 62 62 61 60 59 58 57 55 54 54 56 60 63 64 63 63 61 61 63 64 63 64 66 68 69 69 69 70 68 62 60 66 69 66 63 61 59 58 55 51 46 41 40 39 39 38 34 33 38 44 49 52 54 56 56 56 55 55
16 17 19 21 24 28 32 36 38 41 44 45 47 51 52 50 51 52 52 51 50 49 51 53 54 56 57 58 59 59 59 59 58 58 57 56 55 54 53 54 56 60 64 66 65 64 63 63 64 63 63 65 68 71 72 71 70 69 66 65 68 72 70 66 64 61 59 58 54 50 46 42 39 37 38 38 36 38 43 48 50 52 54 55 55 57 56 56
13 15 17 19 21 25 29 32 35 38 42 46 51 52 50 50 51 51 50 49 48 49 50 51 52 54 55 56 56 57 57 56 56 56 55 54 53 54 54 55 57 61 64 66 65 65 64 64 64 63 64 67 70 70 70 69 69 69 70 72 73 72 69 66 64 60 59 58 54 51 47 42 38 36 38 41 41 45 50 50 50 52 54 55 56 56 56 55
10 12 15 17 20 23 26 29 32 36 42 49 52 51 50 51 50 49 48 48 47 48 48 49 50 51 52 54 55 55 55 55 55 54 53 53 53 54 54 55 58 62 65 66 66 65 64 64 64 64 66 69 69 66 64 65 67 70 72 73 72 70 68 67 65 63 61 58 54 51 46 41 39 38 41 44 44 46 49 50 50 51 51 54 55 55 54 52
7 9 12 15 19 22 26 29 32 38 44 49 50 50 51 50 48 47 47 47 47 47 47 48 49 50 51 53 53 54 54 53 53 52 51 51 53 54 54 55 58 62 65 66 65 64 63 64 65 66 67 66 63 61 63 67 69 70 72 71 69 67 67 67 65 62 59 56 53 50 45 42 42 42 44 47 47 48 49 49 51 51 50 52 54 53 51 50
4 6 9 13 16 20 24 28 33 38 43 47 48 49 49 48 46 46 45 46 46 46 47 48 49 49 51 52 52 52 51 51 52 51 50 50 51 53 54 56 59 62 63 63 64 63 64 65 65 65 64 63 62 64 67 70 71 72 72 72 71 70 69 67 64 60 58 56 52 48 45 44 44 44 46 49 50 50 49 49 50 51 51 52 52 52 51 49
2 4 7 10 13 17 20 25 29 33 37 42 46 48 48 46 45 44 45 46 46 46 48 49 49 50 51 52 51 50 49 50 50 49 50 51 52 53 54 55 58 60 61 62 62 63 63 64 64 64 63 62 64 66 68 70 72 73 73 73 74 72 69 66 64 61 60 57 54 49 45 44 43 43 46 49 50 49 49 48 49 50 51 52 52 52 50 49
1 3 6 9 12 15 17 20 23 26 31 39 44 47 48 46 45 44 45 46 46 47 48 48 48 50 50 50 50 49 49 49 49 49 50 52 54 54 54 54 55 56 56 58 59 60 61 62 63 64 63 64 65 66 69 71 72 72 72 73 73 72 69 67 66 65 63 59 54 50 46 44 44 44 46 48 49 49 47 46 47 49 51 51 51 51 50 48
3 3 7 10 13 15 16 19 23 26 32 39 44 46 47 47 46 45 44 45 46 46 46 45 46 46 47 48 48 48 48 48 48 48 50 52 53 53 52 53 52 52 53 55 57 58 60 61 62 62 62 62 64 66 68 69 70 70 71 72 72 72 69 68 68 66 62 57 53 49 46 45 45 45 46 48 48 48 46 46 47 49 50 49 49 49 50 48
7 5 6 10 15 18 20 23 26 30 35 39 42 44 45 46 44 42 41 42 43 43 42 42 42 42 43 44 44 45 46 46 47 48 50 51 50 49 49 49 50 51 53 55 56 57 58 60 60 60 61 62 64 66 68 69 69 69 69 71 72 71 69 68 68 65 61 57 53 49 46 46 46 46 46 47 47 47 47 47 48 49 49 48 48 48 49 50
10 8 8 10 14 18 21 23 25 28 32 35 39 42 43 41 38 37 38 39 39 40 40 40 40 40 40 39 40 41 43 44 46 48 49 49 48 47 47 48 49 51 53 55 55 56 56 57 57 58 60 62 64 66 69 70 69 69 70 72 73 72 70 69 68 64 60 57 53 50 48 47 47 47 47 47 47 47 48 49 49 49 49 47 46 47 48 50
13 11 11 11 13 17 20 22 24 27 30 33 37 39 38 36 35 35 35 36 36 37 38 39 38 38 37 38 38 39 41 43 45 46 47 46 46 47 48 49 50 52 53 53 53 53 54 55 56 58 60 61 62 64 66 67 68 69 72 74 74 73 71 69 66 63 59 56 53 51 50 49 48 48 47 48 48 48 49 48 48 47 47 46 45 46 47 49
15 14 13 13 14 17 20 22 23 24 28 31 33 34 33 33 33 33 33 33 34 35 35 36 36 37 38 40 41 41 43 44 45 45 45 45 46 46 47 49 50 50 51 50 50 51 52 54 55 55 57 58 60 61 61 63 66 69 71 73 73 72 70 68 66 62 59 56 54 53 51 50 49 48 48 48 48 48 48 47 46 46 46 46 46 46 47 48
15 15 16 16 15 17 20 24 25 25 27 28 29 30 30 31 32 33 33 34 35 35 35 35 36 38 41 42 44 45 46 46 45 44 44 44 44 45 46 46 46 47 47 47 47 48 50 52 52 52 54 57 57 57 58 61 65 68 70 71 70 70 69 67 65 62 59 56 55 53 50 47 47 47 47 47 47 47 47 47 47 48 48 47 47 46 47 47
15 15 16 17 18 18 20 23 26 28 30 32 32 33 33 33 34 35 35 36 37 37 38 38 39 41 42 44 45 45 45 45 45 44 44 43 43 43 42 42 43 44 44 44 45 46 48 51 51 51 53 54 53 54 57 60 63 66 67 68 68 68 68 66 64 61 58 55 52 49 45 44 44 45 46 47 48 48 48 48 49 50 49 48 47 47 47 47
15 15 17 18 19 20 20 22 24 26 29 32 34 36 37 37 37 37 37 37 37 38 39 40 41 42 43 43 43 42 43 43 43 43 42 41 41 40 39 39 40 41 41 42 43 44 46 49 49 49 51 51 50 52 57 60 60 63 65 65 66 67 66 65 63 60 57 53 50 47 46 45 45 46 47 48 49 49 49 50 51 51 50 50 48 47 46 46
Wind_Direction
281 279 278 277 275 272 269 266 263 260 258 257 256 256 255 253 251 249 248 247 246 246 245 245 244 244 244 243 242 242 241 241 241 241 241 241 242 243 243 242 242 242 241 241 241 240 240 241 241 241 241 241 241 241 241 241 241 240 240 240 241 241 242 242 242 243 243 244 245 245 246 247 247 248 248 247 248 250 250 250 249 248 246 246 249 251 253 255
281 279 278 277 276 274 272 269 265 262 260 258 256 255 254 254 252 250 249 247 246 245 245 244 244 244 244 244 243 242 241 241 240 240 241 241 242 243 243 242 242 242 241 242 242 242 241 241 241 241 241 241 240 240 241 240 240 239 239 240 240 241 241 242 243 243 243 244 244 245 245 246 247 247 246 246 246 247 249 249 249 247 245 245 247 250 252 254
281 279 278 276 276 275 273 271 269 265 262 259 257 255 254 253 252 251 249 248 247 245 244 244 244 243 243 243 243 243 242 241 240 240 241 241 242 242 242 241 241 241 241 242 242 242 242 242 242 241 241 240 240 240 240 239 238 238 239 239 240 240 241 242 243 243 243 243 243 244 244 245 245 245 245 245 245 245 245 246 247 246 245 246 248 249 251 252
280 279 277 276 275 275 274 272 271 268 265 262 258 256 254 253 252 251 250 249 247 246 244 243 243 243 242 242 243 243 242 241 240 240 241 241 240 241 241 241 240 241 241 241 242 242 242 242 242 242 241 241 240 240 240 239 238 238 238 239 240 240 241 241 242 243 243 243 244 244 243 244 244 244 244 244 244 243 243 244 244 244 244 246 247 248 249 250
280 278 276 275 275 275 274 273 272 269 267 264 261 258 255 253 252 251 250 249 248 246 245 243 242 242 242 241 241 242 242 241 240 241 241 240 240 240 240 240 239 240 240 240 240 241 241 242 242 242 242 241 240 240 240 239 238 238 239 239 240 240 241 241 242 243 244 244 244 244 243 243 244 244 243 243 244 244 243 243 243 243 243 245 246 247 247 248
281 278 276 274 274 274 274 274 273 271 268 265 262 260 257 254 252 251 250 249 248 247 245 244 242 241 241 240 240 241 241 241 241 241 241 240 239 239 239 239 239 239 239 238 238 239 239 240 241 241 241 241 240 240 239 239 239 239 240 240 239 240 241 242 242 243 244 244 244 244 243 243 243 243 243 243 244 244 243 242 241 241 242 243 244 245 246 247
282 279 276 274 274 274 274 274 273 272 269 265 263 260 258 255 253 251 250 249 247 247 246 244 243 241 240 239 239 240 240 241 240 240 240 239 238 238 238 238 238 238 237 237 236 236 237 238 239 239 240 240 240 240 239 239 240 241 241 240 239 240 240 241 242 243 243 244 244 243 242 242 242 242 242 243 244 244 243 242 241 241 241 242 243 244 244 245
282 280 277 275 274 274 274 274 274 272 270 266 263 260 258 257 254 251 249 248 247 246 245 245 243 242 240 239 238 238 239 239 238 238 239 238 238 238 238 237 238 237 236 236 235 235 236 237 238 239 239 239 239 240 239 240 241 242 242 241 240 240 240 241 241 242 243 244 244 243 242 242 241 241 241 241 242 243 242 242 241 241 241 242 242 242 243 244
283 280 278 276 275 274 274 274 274 273 270 267 263 259 257 256 255 253 250 248 247 245 244 244 243 242 240 239 238 238 238 237 236 237 238 238 238 237 237 237 237 237 236 235 235 235 235 235 236 237 237 237 238 240 240 240 241 243 242 242 242 241 241 242 243 243 244 244 244 243 242 242 240 240 240 240 241 242 242 242 241 241 241 241 241 241 242 244
284 281 279 277 275 275 275 274 274 273 271 268 263 259 256 254 253 253 251 249 247 245 244 242 242 242 241 239 237 237 238 236 235 236 237 238 237 237 236 236 236 236 236 235 235 234 233 233 234 235 236 237 238 238 238 239 241 242 243 243 243 242 243 244 244 245 245 245 245 244 242 241 240 239 239 238 239 241 241 241 240 240 240 240 240 241 242 243
284 282 280 278 276 276 275 275 275 274 272 269 264 259 255 253 252 251 251 250 248 245 243 242 241 241 241 240 238 238 237 235 234 235 236 237 238 237 236 235 235 235 235 235 235 234 233 234 234 235 236 236 237 237 236 237 240 242 243 242 243 242 242 243 244 244 244 244 245 244 242 242 240 238 238 237 238 240 240 240 240 240 240 239 240 240 241 241
285 282 280 279 278 277 276 276 275 275 273 270 265 259 254 252 250 249 249 249 248 246 244 242 240 239 239 239 239 238 237 235 234 234 235 237 238 237 236 235 235 235 234 234 233 233 233 234 234 235 235 236 236 236 236 237 239 241 242 242 243 242 241 243 243 244 244 244 244 243 242 241 240 238 237 236 237 238 239 239 239 239 239 239 239 239 240 240
286 283 281 279 279 278 277 277 276 275 273 271 267 260 254 250 249 248 247 247 246 246 245 243 240 239 237 237 238 239 238 236 234 233 234 234 235 236 235 233 233 233 233 233 233 233 233 234 234 234 235 235 236 236 235 236 238 240 240 241 242 242 242 243 243 244 244 244 244 244 242 241 240 238 237 236 236 237 238 239 239 238 238 238 237 237 238 238
286 283 281 279 278 278 278 277 276 275 273 271 267 261 253 248 246 246 246 246 245 245 245 244 241 239 237 236 238 239 238 237 234 232 232 232 232 233 233 232 231 232 232 232 233 233 234 234 234 235 235 236 236 236 235 236 237 239 240 240 241 241 240 241 242 242 244 245 245 245 243 241 239 239 238 238 238 238 238 238 238 238 238 238 238 237 237 237
287 283 281 279 278 278 278 277 276 275 273 271 267 261 253 247 244 243 244 244 244 245 245 244 243 240 237 237 239 238 237 236 234 232 230 230 231 231 232 232 231 231 231 231 232 233 234 234 234 235 236 236 237 236 236 236 238 240 241 241 241 241 240 240 240 240 241 243 244 245 244 241 239 240 240 239 239 239 239 239 238 238 237 237 238 238 238 238
287 283 280 278 277 277 277 276 276 274 273 270 266 261 253 247 243 242 241 242 243 243 244 244 243 241 237 237 238 237 236 236 234 233 232 231 231 230 231 231 231 230 230 231 231 232 233 233 234 235 236 237 237 237 236 236 238 239 241 242 242 241 241 240 239 239 239 240 242 244 244 241 238 238 239 239 240 239 239 239 238 238 237 237 238 238 238 238
287 283 280 278 277 276 276 275 274 273 272 269 265 260 253 247 242 240 240 240 240 241 242 242 242 241 238 237 237 236 235 236 236 235 234 232 232 231 231 231 231 231 230 231 231 232 233 233 233 234 235 237 238 238 238 239 240 241 242 243 243 242 242 240 239 239 238 238 241 243 244 241 237 236 236 237 241 241 240 240 239 238 237 237 238 238 239 239
288 283 280 278 277 276 275 274 273 271 269 267 263 259 253 247 243 240 239 238 239 240 240 241 241 241 239 237 236 236 235 235 235 234 233 232 232 230 230 231 232 232 232 232 232 233 233 233 233 234 235 237 239 240 241 242 241 241 241 242 242 242 242 241 239 238 238 238 240 242 244 243 239 236 234 233 237 241 241 240 241 239 239 238 238 239 240 240
287 283 279 278 277 275 274 273 271 269 267 264 261 257 252 248 244 241 239 238 238 238 238 238 239 240 240 237 235 235 234 233 233 231 230 230 230 229 227 229 230 231 232 233 233 233 234 234 234 236 237 239 240 240 240 240 240 239 238 239 240 241 241 240 240 239 238 237 239 242 243 242 240 238 235 233 235 240 242 242 243 243 242 241 240 240 240 241
286 282 279 277 276 275 273 271 269 267 264 261 258 254 251 247 244 242 240 238 238 238 237 236 237 238 239 238 234 233 234 233 232 230 229 229 230 228 226 226 227 229 231 232 233 233 234 234 235 237 238 239 239 238 237 236 237 236 236 238 239 240 241 241 241 240 239 239 240 241 241 241 240 239 237 236 235 239 243 243 244 245 245 244 243 242 241 241
285 282 279 277 275 273 272 269 266 264 261 258 255 252 249 246 243 241 240 239 238 238 237 236 235 236 237 237 234 232 232 233 232 231 229 229 230 229 226 226 226 227 229 231 231 232 232 233 234 234 235 235 236 235 235 235 235 234 234 236 238 239 241 241 241 241 240 240 241 242 242 240 239 238 238 237 235 237 241 243 245 247 248 248 247 247 245 242
284 281 278 276 274 272 270 267 264 261 258 255 253 250 247 245 243 240 239 238 238 238 237 235 234 234 235 235 234 232 231 231 232 231 229 229 230 230 227 226 225 225 226 228 229 230 231 231 231 232 233 234 234 234 234 234 234 233 233 234 237 239 240 241 242 242 242 242 243 244 244 242 240 238 238 238 237 237 240 245 251 252 252 253 253 250 248 246
283 280 277 274 272 269 267 265 262 259 256 253 251 248 246 244 242 240 238 236 237 237 236 236 234 234 235 234 232 231 230 230 230 230 229 228 230 230 227 226 225 225 225 227 228 228 227 227 229 231 232 232 233 233 233 233 234 233 233 234 236 238 240 242 243 242 242 242 243 243 244 243 241 238 237 237 238 240 240 243 252 258 260 258 255 251 249 248
282 279 276 273 270 267 265 263 260 257 254 251 249 247 244 242 240 239 237 236 236 236 236 236 235 234 235 232 230 230 229 228 228 229 228 227 228 229 228 225 224 223 224 226 227 226 224 223 225 227 229 231 231 231 232 233 234 234 233 234 236 238 239 240 241 242 242 242 243 243 243 243 242 239 236 234 234 237 237 234 239 253 265 263 256 250 248 247
280 277 274 271 268 265 263 260 258 255 253 250 247 245 243 241 239 238 237 235 235 236 235 235 235 234 234 232 230 229 229 227 227 227 227 226 227 228 227 226 224 223 223 223 225 224 223 222 223 225 226 228 229 230 231 232 232 233 233 234 236 237 237 238 241 241 241 242 242 242 242 241 240 238 235 231 227 223 222 225 225 231 249 257 256 251 247 245
277 274 271 269 266 263 261 258 256 253 250 248 246 244 241 239 238 237 236 235 235 236 234 234 235 234 233 231 229 227 227 226 225 224 224 224 225 226 227 225 224 223 222 222 223 223 222 222 223 224 225 226 226 226 228 230 231 230 231 233 234 235 236 238 240 240 241 241 241 240 240 239 237 235 232 228 223 216 211 216 220 220 230 245 254 252 245 243
276 272 269 266 264 261 258 256 254 251 248 246 244 242 240 238 237 236 236 235 234 235 233 232 234 233 231 229 227 225 225 225 223 222 222 223 223 225 225 225 224 222 221 221 221 221 221 221 223 224 224 225 225 225 226 227 229 229 230 231 233 235 235 236 238 239 240 241 239 238 239 238 236 233 230 226 220 214 211 213 215 217 225 238 247 246 242 242
276 272 267 264 261 258 255 253 251 249 246 244 241 240 237 236 235 234 234 234 233 234 232 231 232 232 229 227 226 224 223 223 222 220 220 221 222 223 223 223 223 222 221 221 220 221 221 221 222 223 224 224 225 225 225 225 226 227 228 230 231 233 234 235 236 237 238 239 239 237 237 237 236 233 231 227 220 214 213 213 212 216 222 231 239 240 239 243
275 271 267 262 258 255 252 250 248 246 243 241 238 236 235 234 233 232 232 232 232 232 231 230 231 231 229 225 224 223 222 222 221 219 219 220 221 222 222 222 221 221 221 220 218 219 220 220 221 222 222 222 223 223 224 225 224 225 228 229 230 232 233 234 235 236 238 240 240 239 238 237 235 232 230 228 223 217 216 215 217 221 226 232 240 241 239 241
274 270 266 260 255 252 249 247 245 242 239 237 235 233 232 231 230 230 230 230 230 229 229 229 228 229 227 224 223 222 220 220 219 218 218 220 221 222 221 221 221 219 219 218 217 217 218 219 220 222 220 220 221 221 222 223 224 226 228 229 230 232 233 233 234 236 238 240 242 242 240 238 235 232 229 226 222 220 218 219 222 227 230 234 240 242 240 240
272 268 263 258 253 248 245 242 240 238 235 234 232 230 229 229 228 228 229 229 228 227 227 226 226 226 224 222 221 220 219 219 218 217 217 219 221 222 223 223 223 222 220 218 217 217 218 218 220 222 221 220 221 221 222 222 223 226 229 229 230 232 233 234 234 237 239 243 246 245 242 238 235 231 229 226 222 220 220 221 224 228 232 235 238 241 241 240
269 265 260 256 251 245 241 238 235 233 231 230 229 228 227 226 226 226 227 227 226 225 225 224 223 223 221 219 219 218 217 217 217 216 217 218 219 221 223 225 226 226 224 221 219 218 218 218 219 221 222 222 223 223 224 223 224 227 230 231 232 234 235 236 237 239 242 245 246 245 242 239 233 229 228 226 223 221 221 224 227 228 232 236 238 239 241 241
267 262 258 254 249 243 239 234 231 229 228 227 226 225 224 222 222 223 224 225 224 222 222 221 220 219 218 217 217 216 216 216 215 215 216 217 218 219 220 221 223 223 222 220 220 220 220 219 219 221 223 224 226 227 228 227 228 231 233 234 234 237 239 240 242 243 242 243 244 243 241 238 232 227 227 226 225 224 223 227 231 231 232 235 236 238 241 242
267 261 255 249 244 239 233 229 226 226 225 223 222 222 220 218 220 221 221 222 221 220 219 218 217 216 215 214 214 214 214 214 214 214 215 217 218 219 219 220 220 220 219 218 217 218 220 220 221 223 224 226 227 228 229 229 229 232 234 234 234 237 239 241 241 241 240 240 243 242 240 237 232 228 227 226 227 226 224 226 232 234 235 236 237 238 240 242
266 258 251 245 239 232 226 223 222 221 221 220 219 218 216 217 218 218 219 219 218 217 216 215 213 213 213 212 212 212 212 211 211 212 215 217 219 219 220 221 220 219 218 218 217 217 218 218 219 221 222 224 226 227 228 228 228 230 232 233 233 236 239 239 238 237 235 236 238 239 236 234 233 230 227 227 227 228 228 229 233 235 236 238 239 240 241 243
265 254 246 238 230 224 221 220 219 218 216 215 214 213 214 215 216 215 216 216 215 214 213 212 211 210 211 210 210 211 211 209 209 210 212 215 217 219 220 220 220 218 216 216 216 217 217 216 217 218 219 220 222 224 227 228 229 231 233 233 233 235 236 236 235 234 234 235 236 238 235 231 231 229 225 226 228 230 233 235 237 238 238 238 240 241 242 242
264 251 242 234 226 221 218 217 216 214 212 210 209 210 213 214 213 213 213 213 212 211 210 210 208 208 209 208 209 210 209 208 209 210 211 213 215 218 219 220 219 216 214 213 214 215 215 215 217 217 217 219 219 221 224 226 227 230 232 232 232 233 234 233 233 231 232 234 235 237 236 231 230 228 223 222 225 230 237 240 240 240 240 240 241 241 242 241
264 249 239 233 227 222 219 217 214 211 208 205 205 209 212 212 211 211 211 211 210 209 209 209 207 206 207 208 208 208 207 207 208 210 211 214 216 217 217 218 217 215 212 212 212 213 212 214 216 216 217 219 220 220 221 223 224 227 229 229 230 232 233 233 233 232 233 234 234 235 235 231 229 227 221 217 216 221 230 236 237 237 238 240 240 240 240 240
264 248 235 228 223 220 218 215 212 208 203 201 204 208 210 210 210 209 209 208 207 207 207 207 205 205 206 206 206 205 205 206 208 210 212 214 217 219 217 215 213 212 212 212 212 213 213 215 216 216 217 220 221 221 222 223 224 226 226 227 228 230 231 233 233 233 233 234 233 232 232 230 228 225 220 217 216 219 225 231 234 235 235 236 237 238 239 240
265 247 233 223 216 213 212 210 207 204 201 200 203 206 207 208 208 208 207 206 205 205 205 205 204 203 204 205 204 203 205 206 208 211 213 216 219 219 217 214 211 210 210 211 212 213 214 215 217 218 219 221 222 222 223 225 227 227 228 229 230 230 231 232 232 231 231 231 231 231 229 228 227 224 219 218 219 222 227 232 235 236 236 236 237 238 239 240
267 245 231 222 214 208 205 203 201 200 200 201 202 203 205 207 207 206 205 204 203 203 202 202 202 201 202 203 203 203 204 206 209 212 214 218 220 220 216 212 210 210 210 210 211 213 215 216 218 219 220 222 223 223 224 226 227 228 229 231 231 232 233 234 234 233 232 232 231 229 227 226 226 222 217 217 219 222 226 231 235 237 238 239 239 240 240 240
267 236 224 218 213 208 204 201 199 200 201 200 200 202 204 205 205 204 202 202 202 201 200 201 200 199 201 203 204 205 206 207 210 212 215 218 220 219 216 210 209 210 210 210 211 213 215 217 219 220 221 221 222 222 223 224 225 226 227 228 229 229 230 232 233 234 234 234 232 229 226 225 225 222 218 217 219 222 225 228 233 236 238 240 240 241 240 239
260 208 206 206 204 203 204 203 203 204 202 199 198 200 202 204 204 202 201 200 200 200 200 199 198 198 200 202 204 205 207 210 212 214 216 217 216 215 214 210 209 209 209 210 211 213 215 217 219 220 220 220 222 223 224 224 224 225 225 226 227 227 227 229 230 231 231 231 229 226 224 224 225 224 221 219 221 223 226 229 232 235 237 239 240 241 240 239
7 174 180 186 188 190 194 197 200 202 201 197 197 199 200 202 202 201 200 199 198 200 200 198 198 199 200 202 204 206 208 211 213 215 215 214 212 210 209 209 209 210 210 211 213 214 217 219 220 220 220 219 220 222 224 225 225 225 225 226 227 227 226 226 227 228 227 227 226 223 220 222 225 224 222 221 222 225 228 231 234 236 238 240 241 242 243 241
48 134 162 168 169 172 177 182 186 190 194 196 197 198 199 199 200 200 198 197 198 200 200 199 199 199 201 203 205 207 210 212 213 213 212 211 210 208 207 207 208 210 212 214 215 216 218 220 221 221 221 220 221 223 225 226 226 227 226 227 228 228 226 226 226 227 227 226 224 221 219 220 223 224 222 221 223 225 228 232 235 236 238 239 241 242 244 244
65 97 144 162 164 164 168 174 179 184 189 193 196 198 198 199 199 198 196 196 197 198 199 200 200 200 202 205 207 208 210 211 211 209 209 209 208 207 207 207 209 211 214 216 218 219 220 222 222 222 222 222 222 223 224 225 226 227 228 229 229 228 227 226 226 226 226 224 222 220 218 219 222 223 222 222 223 225 228 232 234 235 236 238 239 241 243 244
73 90 120 150 161 161 164 168 173 180 187 191 194 196 198 199 197 195 195 195 195 196 197 199 199 200 202 205 208 208 209 208 207 207 206 206 205 206 207 209 211 214 216 218 219 221 223 224 225 225 224 223 223 223 223 223 223 223 225 227 228 228 227 226 226 225 224 223 221 218 218 218 220 222 222 222 223 226 229 232 233 234 235 238 240 241 243 244
80 92 110 133 148 152 156 162 168 175 183 188 193 196 197 196 194 193 193 192 192 194 195 196 196 196 197 200 202 203 204 205 205 205 205 205 205 206 208 211 213 216 218 220 221 222 224 224 225 225 224 223 222 222 222 222 221 220 221 224 226 227 226 226 226 225 224 223 221 219 218 219 220 220 221 222 224 227 231 234 234 234 236 238 239 241 243 244
81 93 105 120 136 145 150 154 160 169 178 184 189 192 192 191 191 191 190 189 189 190 192 192 191 191 192 194 195 197 200 202 203 204 205 206 207 209 211 213 215 218 219 221 222 222 223 222 222 223 223 221 220 219 220 221 220 219 219 221 222 224 224 224 225 224 223 222 221 219 219 219 220 221 222 223 226 229 233 234 234 233 235 237 239 240 242 244
76 93 105 114 126 138 147 151 154 162 172 180 186 188 189 189 189 189 189 188 187 187 188 189 188 190 191 192 193 195 197 200 202 204 206 208 210 212 214 216 218 220 221 221 221 221 221 221 220 220 221 220 218 216 217 218 218 218 218 218 219 221 222 223 223 223 223 222 221 221 221 222 223 224 225 227 230 232 233 233 232 232 234 236 239 240 242 243
68 87 102 112 121 131 142 149 154 161 168 175 181 185 189 190 191 191 190 189 188 187 187 188 189 191 192 194 195 196 198 200 202 204 207 210 212 215 217 218 219 220 220 219 219 219 220 220 218 217 219 220 217 214 215 217 216 216 216 216 216 218 220 220 221 222 222 223 223 222 223 225 226 227 229 230 232 233 233 232 232 232 233 236 238 240 242 244
66 83 98 108 117 127 137 144 151 158 164 169 175 181 186 189 190 191 190 190 189 189 189 189 190 192 193 195 196 198 200 202 204 206 208 210 212 214 215 217 218 219 219 219 219 218 220 221 218 215 217 217 213 212 215 216 215 214 215 214 214 215 216 217 219 220 221 222 222 222 223 224 224 226 228 229 231 231 231 231 231 232 233 235 238 240 243 245
Height
10615 10613 10612 10611 10609 10609 10608 10608 10608 10608 10609 10610 10611 10612 10612 10613 10613 10615 10616 10619 10621 10623 10625 10627 10630 10633 10636 10639 10642 10645 10647 10651 10653 10658 10654 10647 10655 10666 10669 10670 10671 10674 10675 10677 10680 10683 10687 10690 10694 10698 10700 10703 10706 10709 10713 10718 10724 10731 10732 10731 10729 10727 10728 10733 10739 10744 10747 10750 10754 10758 10764 10769 10773 10777 10780 10782 10786 10787 10788 10789 10790 10792 10791 10789 10787 10789 10790 10790
10608 10607 10605 10604 10603 10602 10601 10601 10601 10601 10601 10602 10603 10604 10605 10605 10606 10607 10609 10611 10613 10616 10618 10621 10623 10626 10629 10631 10634 10637 10640 10643 10647 10650 10641 10640 10657 10663 10661 10664 10666 10668 10670 10672 10675 10679 10683 10686 10690 10692 10694 10697 10700 10704 10708 10712 10718 10721 10722 10722 10719 10718 10723 10730 10736 10739 10742 10745 10749 10754 10760 10766 10768 10772 10774 10777 10781 10783 10783 10783 10785 10787 10786 10784 10784 10786 10787 10787
10601 10600 10598 10597 10597 10596 10595 10594 10594 10594 10594 10594 10595 10596 10597 10597 10598 10600 10602 10604 10606 10608 10611 10614 10616 10619 10621 10624 10626 10629 10631 10635 10640 10638 10632 10642 10657 10654 10653 10658 10660 10661 10665 10668 10671 10675 10678 10682 10684 10685 10688 10691 10694 10699 10702 10706 10711 10712 10714 10712 10708 10714 10721 10726 10730 10733 10736 10740 10745 10751 10757 10762 10763 10766 10769 10771 10776 10778 10778 10779 10780 10782 10781 10780 10781 10783 10783 10784
10594 10593 10591 10590 10589 10588 10588 10587 10587 10587 10586 10587 10587 10588 10589 10589 10591 10592 10594 10597 10599 10601 10604 10606 10609 10612 10614 10616 10619 10621 10623 10628 10631 10629 10630 10642 10648 10646 10647 10651 10653 10656 10660 10665 10667 10670 10674 10676 10677 10679 10682 10685 10689 10694 10696 10700 10703 10705 10706 10702 10703 10713 10717 10720 10724 10727 10730 10735 10741 10746 10752 10757 10758 10760 10763 10766 10769 10772 10774 10775 10776 10777 10777 10777 10778 10780 10780 10780
10587 10585 10584 10583 10582 10581 10580 10580 10580 10579 10580 10579 10579 10580 10580 10581 10582 10584 10587 10589 10591 10594 10596 10599 10601 10604 10606 10609 10612 10614 10616 10620 10623 10624 10628 10636 10638 10639 10640 10643 10647 10650 10655 10660 10662 10665 10668 10670 10671 10674 10676 10679 10684 10687 10689 10693 10697 10699 10697 10696 10703 10710 10711 10715 10720 10722 10726 10731 10735 10741 10748 10753 10754 10754 10757 10761 10763 10766 10769 10771 10772 10773 10774 10774 10775 10776 10776 10776
10579 10578 10576 10575 10574 10573 10572 10572 10572 10572 10572 10571 10572 10572 10572 10573 10574 10576 10579 10581 10584 10586 10589 10591 10593 10596 10599 10602 10604 10606 10609 10613 10617 10618 10621 10626 10629 10630 10632 10636 10641 10645 10650 10654 10656 10659 10662 10663 10666 10668 10670 10674 10679 10680 10683 10688 10691 10692 10690 10694 10701 10703 10706 10712 10715 10717 10721 10725 10729 10735 10743 10747 10748 10749 10752 10756 10758 10761 10763 10765 10768 10769 10770 10770 10771 10772 10773 10773
10571 10569 10568 10567 10566 10565 10564 10564 10564 10564 10564 10563 10564 10563 10564 10564 10565 10568 10570 10573 10576 10578 10581 10583 10586 10588 10591 10595 10597 10599 10603 10606 10609 10611 10613 10617 10620 10621 10626 10631 10635 10639 10643 10647 10650 10653 10655 10658 10660 10661 10664 10670 10672 10673 10679 10684 10686 10685 10685 10690 10695 10699 10704 10707 10710 10712 10715 10719 10723 10730 10737 10740 10743 10744 10747 10751 10753 10755 10756 10759 10763 10764 10766 10766 10767 10769 10768 10768
10563 10561 10560 10559 10558 10557 10556 10556 10555 10556 10555 10555 10555 10555 10556 10556 10557 10559 10561 10565 10567 10570 10573 10575 10578 10580 10583 10588 10590 10593 10596 10596 10600 10602 10604 10609 10612 10614 10620 10625 10628 10632 10636 10640 10643 10646 10651 10653 10654 10656 10660 10664 10665 10669 10675 10680 10681 10679 10679 10686 10691 10695 10699 10702 10705 10707 10710 10713 10717 10724 10730 10733 10737 10738 10741 10747 10747 10747 10750 10754 10758 10760 10761 10763 10764 10764 10764 10764
10554 10553 10551 10550 10549 10548 10547 10547 10547 10547 10546 10547 10546 10547 10547 10547 10549 10550 10553 10556 10558 10562 10564 10567 10571 10572 10576 10580 10583 10587 10585 10584 10592 10596 10598 10602 10604 10609 10614 10618 10622 10625 10630 10633 10637 10642 10647 10647 10647 10650 10653 10657 10661 10666 10672 10675 10675 10671 10675 10683 10687 10692 10695 10698 10701 10703 10706 10709 10712 10718 10723 10726 10730 10732 10736 10741 10741 10740 10744 10748 10752 10755 10757 10759 10759 10760 10761 10762
10545 10543 10542 10541 10539 10538 10538 10537 10537 10537 10538 10537 10537 10538 10538 10539 10540 10542 10545 10547 10550 10552 10554 10559 10562 10564 10570 10572 10577 10579 10571 10576 10587 10589 10592 10595 10598 10603 10608 10612 10616 10619 10623 10627 10632 10637 10639 10637 10639 10643 10648 10654 10658 10662 10667 10670 10668 10666 10673 10680 10683 10688 10692 10695 10697 10699 10702 10705 10707 10712 10716 10718 10723 10726 10729 10734 10735 10735 10738 10742 10746 10750 10752 10754 10755 10757 10758 10759
10535 10534 10532 10531 10530 10529 10528 10527 10527 10528 10528 10528 10528 10528 10529 10530 10531 10534 10536 10538 10541 10542 10546 10550 10553 10558 10562 10565 10572 10566 10559 10572 10581 10582 10587 10589 10592 10597 10602 10607 10609 10612 10616 10621 10626 10629 10629 10630 10633 10640 10645 10649 10652 10657 10662 10664 10662 10663 10671 10676 10678 10683 10688 10690 10692 10694 10697 10699 10701 10705 10709 10712 10715 10719 10723 10727 10729 10729 10732 10736 10741 10744 10748 10750 10751 10753 10755 10755
10525 10524 10522 10520 10519 10518 10517 10517 10517 10517 10517 10518 10518 10518 10519 10521 10522 10525 10528 10529 10531 10533 10537 10541 10546 10551 10553 10561 10562 10549 10552 10569 10575 10578 10583 10583 10586 10591 10596 10601 10603 10606 10609 10614 10618 10619 10620 10623 10630 10636 10639 10642 10646 10652 10657 10658 10658 10660 10666 10671 10673 10679 10684 10685 10687 10688 10691 10694 10695 10697 10703 10705 10707 10711 10716 10721 10723 10724 10727 10731 10736 10739 10742 10745 10747 10749 10750 10750
10515 10513 10512 10510 10508 10507 10506 10506 10506 10506 10506 10507 10508 10508 10510 10511 10513 10516 10517 10520 10522 10525 10529 10532 10538 10541 10547 10556 10546 10537 10552 10564 10567 10572 10574 10575 10579 10583 10588 10593 10595 10598 10602 10607 10609 10609 10613 10618 10625 10629 10631 10636 10640 10646 10652 10653 10653 10655 10661 10666 10669 10675 10680 10680 10682 10684 10686 10688 10688 10691 10696 10697 10700 10705 10711 10715 10718 10720 10722 10726 10729 10733 10737 10739 10741 10742 10743 10745
10504 10502 10501 10499 10498 10496 10495 10494 10494 10494 10495 10496 10497 10497 10499 10501 10503 10505 10507 10510 10513 10517 10521 10524 10530 10532 10542 10545 10530 10534 10551 10554 10559 10563 10561 10566 10570 10574 10580 10584 10587 10591 10595 10598 10599 10601 10607 10613 10620 10623 10627 10633 10635 10640 10646 10647 10648 10651 10656 10661 10665 10671 10674 10674 10677 10679 10681 10682 10682 10685 10687 10690 10696 10701 10706 10711 10714 10716 10718 10721 10724 10728 10732 10733 10734 10736 10737 10740
10493 10491 10489 10488 10487 10485 10484 10483 10482 10482 10483 10484 10485 10486 10488 10490 10493 10495 10497 10501 10504 10509 10512 10517 10522 10525 10535 10532 10520 10532 10542 10542 10548 10548 10550 10558 10562 10568 10571 10574 10580 10584 10587 10589 10591 10595 10601 10608 10615 10619 10624 10626 10628 10635 10641 10643 10645 10648 10652 10656 10661 10665 10667 10669 10672 10675 10676 10676 10677 10678 10677 10684 10693 10698 10702 10707 10709 10712 10714 10716 10720 10724 10727 10728 10727 10730 10733 10735
10481 10479 10477 10476 10475 10474 10472 10471 10470 10470 10471 10472 10473 10475 10477 10479 10482 10484 10488 10491 10496 10501 10504 10510 10514 10517 10524 10519 10513 10524 10530 10532 10537 10540 10549 10555 10557 10561 10564 10568 10574 10576 10579 10581 10584 10589 10595 10604 10610 10613 10617 10619 10624 10631 10634 10638 10642 10645 10649 10652 10656 10659 10660 10664 10668 10669 10671 10672 10671 10669 10669 10679 10690 10694 10698 10703 10704 10706 10708 10711 10715 10719 10721 10722 10722 10725 10729 10730
10469 10467 10465 10463 10462 10462 10461 10459 10458 10458 10459 10460 10461 10463 10465 10468 10471 10473 10478 10483 10488 10492 10496 10502 10505 10508 10512 10508 10506 10515 10521 10525 10531 10539 10547 10549 10550 10554 10559 10564 10567 10569 10572 10573 10578 10584 10590 10599 10605 10608 10612 10615 10620 10625 10630 10637 10641 10643 10646 10647 10650 10652 10653 10658 10662 10663 10666 10668 10665 10662 10663 10674 10685 10689 10694 10700 10700 10700 10703 10706 10709 10713 10715 10717 10719 10722 10724 10725
10456 10454 10452 10450 10449 10448 10448 10447 10446 10446 10447 10447 10449 10450 10453 10457 10459 10463 10468 10474 10479 10483 10488 10492 10495 10500 10501 10499 10501 10506 10513 10519 10525 10533 10539 10540 10541 10546 10554 10558 10559 10563 10565 10568 10575 10581 10587 10595 10599 10603 10607 10612 10618 10623 10630 10636 10637 10639 10641 10641 10642 10645 10647 10651 10654 10656 10659 10661 10659 10657 10659 10669 10679 10685 10690 10695 10694 10695 10699 10702 10705 10708 10711 10713 10716 10718 10719 10721
10442 10440 10438 10437 10435 10434 10434 10434 10434 10434 10435 10435 10436 10439 10442 10446 10449 10453 10459 10465 10470 10473 10477 10482 10486 10491 10490 10489 10492 10497 10503 10509 10515 10523 10528 10529 10530 10536 10545 10548 10552 10557 10559 10565 10573 10577 10583 10589 10594 10601 10608 10613 10616 10621 10627 10629 10629 10632 10635 10635 10636 10638 10640 10643 10646 10648 10652 10654 10653 10652 10654 10662 10673 10680 10685 10689 10691 10693 10696 10699 10702 10705 10707 10709 10711 10713 10716 10718
10428 10426 10424 10423 10422 10420 10419 10420 10421 10422 10423 10423 10424 10427 10431 10436 10439 10444 10450 10456 10460 10462 10467 10473 10477 10480 10478 10479 10484 10489 10494 10499 10506 10514 10519 10520 10521 10526 10534 10538 10544 10550 10555 10562 10568 10572 10578 10584 10594 10602 10606 10607 10609 10614 10618 10620 10621 10625 10629 10630 10631 10632 10634 10636 10639 10641 10644 10647 10647 10645 10649 10658 10667 10675 10680 10685 10691 10693 10694 10697 10699 10701 10703 10705 10707 10709 10712 10714
10412 10411 10410 10409 10408 10406 10404 10405 10407 10409 10410 10411 10412 10416 10421 10426 10430 10435 10440 10445 10448 10451 10457 10463 10466 10469 10466 10468 10476 10481 10486 10492 10499 10505 10511 10513 10514 10519 10527 10532 10537 10545 10551 10555 10559 10565 10572 10583 10593 10597 10597 10598 10601 10606 10609 10612 10614 10619 10624 10625 10626 10627 10628 10629 10631 10633 10637 10640 10640 10639 10645 10654 10662 10670 10676 10681 10687 10690 10692 10695 10697 10698 10699 10701 10703 10706 10708 10709
10396 10395 10394 10394 10393 10392 10390 10390 10394 10396 10397 10398 10400 10406 10412 10416 10421 10425 10430 10434 10436 10439 10445 10449 10455 10456 10453 10459 10469 10473 10480 10486 10490 10496 10503 10507 10509 10514 10520 10525 10533 10540 10543 10545 10552 10561 10571 10582 10587 10587 10589 10591 10594 10599 10603 10606 10608 10614 10619 10620 10621 10622 10622 10622 10623 10626 10632 10633 10632 10634 10640 10649 10658 10667 10673 10678 10683 10687 10692 10697 10697 10697 10698 10698 10700 10702 10703 10704
10379 10378 10378 10378 10378 10378 10376 10376 10380 10383 10384 10386 10390 10396 10402 10406 10411 10415 10418 10423 10423 10426 10432 10436 10444 10445 10444 10453 10462 10466 10474 10478 10481 10488 10495 10501 10504 10507 10511 10518 10526 10531 10535 10542 10550 10558 10567 10575 10578 10579 10582 10584 10588 10594 10598 10600 10604 10610 10614 10616 10617 10616 10616 10616 10615 10620 10625 10624 10624 10629 10635 10644 10654 10663 10670 10676 10681 10686 10694 10699 10698 10695 10694 10694 10695 10697 10697 10698
10362 10362 10362 10361 10362 10363 10362 10363 10366 10369 10370 10374 10380 10385 10390 10395 10400 10404 10406 10411 10411 10414 10421 10428 10435 10435 10435 10445 10454 10460 10465 10468 10473 10480 10487 10494 10497 10498 10504 10510 10516 10523 10531 10539 10544 10551 10560 10566 10568 10571 10574 10577 10583 10588 10593 10596 10601 10606 10609 10611 10610 10609 10610 10608 10607 10614 10616 10614 10618 10625 10631 10640 10650 10659 10667 10673 10679 10687 10693 10697 10697 10696 10693 10688 10688 10689 10689 10690
10346 10345 10345 10345 10346 10347 10349 10350 10353 10356 10358 10364 10369 10373 10379 10384 10388 10391 10394 10399 10401 10403 10413 10420 10422 10422 10426 10439 10450 10455 10457 10461 10467 10472 10480 10487 10489 10492 10497 10502 10509 10518 10526 10530 10535 10544 10552 10557 10560 10562 10566 10571 10577 10583 10589 10592 10596 10600 10603 10605 10602 10600 10601 10600 10602 10608 10609 10608 10614 10619 10625 10636 10646 10654 10662 10668 10675 10683 10688 10690 10690 10693 10693 10685 10681 10681 10680 10682
10329 10329 10329 10329 10330 10333 10336 10337 10339 10343 10346 10352 10357 10361 10368 10372 10376 10379 10383 10389 10390 10393 10403 10409 10409 10412 10423 10435 10442 10444 10447 10452 10456 10462 10472 10479 10481 10485 10489 10495 10502 10510 10517 10522 10528 10537 10546 10552 10553 10556 10561 10565 10571 10578 10583 10586 10590 10594 10597 10596 10593 10591 10594 10595 10598 10602 10603 10603 10607 10612 10619 10631 10641 10648 10656 10662 10669 10675 10679 10682 10683 10686 10686 10681 10676 10672 10671 10673
10312 10313 10314 10314 10316 10319 10322 10324 10326 10330 10335 10341 10345 10350 10357 10360 10364 10368 10372 10377 10380 10383 10392 10398 10398 10405 10417 10425 10429 10435 10439 10441 10445 10456 10466 10470 10473 10477 10483 10489 10494 10501 10508 10513 10523 10533 10541 10545 10546 10550 10554 10559 10567 10574 10578 10581 10584 10587 10589 10586 10583 10584 10587 10590 10593 10596 10596 10595 10599 10607 10616 10627 10637 10645 10651 10656 10662 10668 10672 10675 10680 10682 10681 10676 10669 10663 10662 10668
10296 10298 10299 10301 10302 10304 10308 10311 10314 10319 10326 10331 10335 10340 10345 10347 10352 10357 10361 10366 10369 10373 10381 10387 10390 10398 10408 10415 10421 10427 10429 10431 10440 10451 10458 10461 10465 10470 10476 10482 10487 10493 10500 10509 10521 10529 10532 10537 10541 10544 10549 10557 10566 10570 10572 10574 10576 10580 10578 10575 10575 10576 10580 10584 10588 10591 10589 10587 10594 10606 10616 10625 10634 10641 10646 10651 10657 10664 10668 10671 10675 10675 10671 10667 10660 10654 10658 10664
10282 10283 10285 10287 10288 10291 10296 10299 10303 10311 10318 10320 10324 10329 10332 10336 10341 10346 10350 10354 10359 10364 10372 10379 10385 10392 10400 10408 10414 10416 10418 10425 10435 10443 10448 10453 10458 10463 10469 10475 10479 10485 10493 10503 10514 10518 10523 10531 10534 10536 10544 10554 10559 10561 10563 10566 10569 10571 10567 10566 10568 10569 10574 10579 10583 10585 10582 10583 10595 10607 10616 10623 10630 10636 10641 10647 10654 10660 10663 10666 10667 10663 10659 10656 10652 10650 10656 10661
10269 10270 10271 10273 10275 10280 10284 10288 10295 10302 10307 10309 10313 10317 10321 10326 10331 10336 10340 10344 10349 10357 10363 10371 10379 10385 10393 10402 10405 10406 10411 10420 10428 10434 10441 10447 10452 10457 10463 10467 10470 10477 10485 10494 10503 10509 10515 10521 10525 10531 10540 10546 10547 10550 10554 10557 10562 10560 10556 10558 10561 10563 10568 10574 10578 10579 10578 10585 10598 10608 10614 10619 10625 10631 10636 10642 10648 10652 10654 10656 10655 10652 10651 10649 10646 10647 10654 10657
10257 10258 10259 10261 10265 10269 10273 10278 10286 10292 10295 10298 10302 10306 10312 10318 10323 10329 10332 10335 10342 10349 10356 10365 10372 10378 10386 10393 10394 10398 10406 10415 10421 10427 10435 10441 10447 10453 10458 10463 10468 10474 10479 10488 10498 10504 10508 10514 10522 10528 10533 10537 10539 10543 10546 10550 10554 10551 10548 10552 10555 10558 10562 10568 10574 10575 10581 10593 10601 10604 10609 10613 10619 10627 10631 10635 10639 10643 10645 10646 10646 10645 10645 10644 10644 10647 10652 10654
10247 10248 10249 10251 10256 10259 10263 10270 10277 10280 10283 10287 10293 10299 10305 10312 10318 10322 10324 10328 10335 10343 10351 10359 10366 10371 10378 10383 10386 10392 10401 10409 10415 10422 10429 10436 10443 10449 10455 10462 10468 10473 10479 10489 10495 10498 10503 10512 10519 10521 10526 10532 10535 10537 10540 10545 10548 10543 10541 10547 10552 10554 10559 10566 10573 10578 10589 10598 10596 10596 10601 10606 10614 10622 10624 10627 10630 10634 10638 10640 10641 10640 10640 10641 10643 10646 10648 10650
10239 10239 10241 10244 10247 10251 10257 10262 10266 10269 10273 10279 10286 10292 10299 10307 10310 10312 10315 10321 10329 10337 10345 10352 10358 10364 10370 10374 10379 10387 10394 10402 10409 10416 10423 10430 10437 10443 10449 10455 10461 10467 10476 10483 10489 10494 10500 10506 10511 10516 10524 10530 10532 10535 10539 10544 10546 10541 10541 10547 10552 10554 10558 10568 10575 10582 10591 10592 10587 10589 10593 10600 10610 10616 10617 10621 10624 10628 10634 10638 10637 10635 10636 10638 10640 10642 10644 10646
10232 10232 10234 10236 10239 10244 10249 10252 10256 10260 10265 10273 10279 10285 10294 10299 10300 10303 10310 10316 10323 10332 10339 10345 10351 10357 10361 10366 10372 10380 10388 10397 10404 10411 10418 10425 10432 10438 10445 10450 10455 10461 10467 10472 10480 10488 10494 10503 10511 10518 10524 10527 10530 10534 10536 10539 10539 10535 10536 10542 10546 10551 10559 10566 10572 10578 10585 10584 10579 10580 10586 10596 10606 10610 10613 10617 10620 10624 10630 10632 10631 10630 10632 10634 10635 10638 10639 10640
10225 10226 10228 10230 10234 10237 10240 10242 10246 10251 10258 10266 10272 10281 10288 10290 10292 10299 10305 10310 10319 10326 10332 10338 10344 10349 10353 10359 10367 10374 10381 10389 10397 10406 10415 10422 10428 10435 10441 10446 10450 10456 10462 10468 10476 10482 10488 10499 10508 10512 10516 10520 10524 10527 10527 10527 10528 10527 10528 10534 10544 10553 10557 10559 10563 10570 10575 10574 10570 10572 10582 10594 10601 10604 10609 10612 10616 10621 10624 10625 10625 10627 10628 10628 10630 10632 10634 10635
10220 10220 10221 10224 10227 10229 10231 10234 10238 10244 10251 10259 10267 10276 10280 10281 10287 10294 10299 10305 10313 10320 10326 10332 10337 10342 10348 10355 10363 10370 10377 10385 10392 10401 10409 10417 10423 10429 10435 10440 10445 10451 10457 10464 10471 10477 10485 10493 10496 10499 10505 10511 10515 10518 10517 10519 10524 10522 10522 10535 10549 10550 10545 10547 10554 10562 10565 10565 10566 10570 10581 10591 10595 10599 10604 10608 10613 10618 10621 10622 10622 10623 10623 10623 10625 10627 10628 10630
10214 10215 10216 10218 10220 10222 10225 10228 10233 10239 10246 10254 10264 10269 10270 10275 10283 10288 10293 10300 10308 10315 10321 10326 10331 10338 10344 10351 10359 10365 10374 10383 10391 10398 10405 10411 10417 10424 10430 10435 10439 10445 10451 10457 10463 10469 10478 10484 10486 10491 10498 10502 10504 10506 10506 10511 10515 10515 10522 10537 10542 10533 10530 10538 10546 10553 10557 10560 10564 10570 10578 10587 10592 10596 10601 10606 10612 10617 10619 10618 10616 10617 10617 10618 10620 10621 10623 10624
10210 10211 10212 10214 10217 10219 10221 10224 10229 10235 10242 10251 10258 10260 10264 10272 10278 10283 10289 10297 10304 10311 10316 10321 10328 10335 10341 10349 10356 10363 10372 10381 10389 10396 10402 10407 10413 10418 10423 10429 10434 10439 10444 10450 10455 10462 10469 10473 10476 10485 10491 10493 10494 10495 10497 10502 10507 10512 10521 10527 10523 10518 10525 10534 10541 10549 10554 10558 10563 10568 10575 10583 10589 10594 10598 10603 10607 10610 10609 10607 10607 10609 10609 10611 10613 10615 10616 10618
10207 10208 10209 10211 10213 10216 10219 10223 10227 10232 10239 10246 10250 10254 10262 10269 10273 10279 10287 10294 10302 10308 10312 10319 10327 10333 10340 10347 10354 10362 10371 10379 10386 10392 10397 10403 10408 10412 10417 10421 10426 10432 10438 10444 10450 10456 10462 10466 10471 10478 10482 10482 10483 10487 10495 10502 10506 10510 10511 10510 10508 10513 10523 10530 10537 10545 10548 10553 10560 10565 10571 10579 10586 10592 10595 10597 10599 10599 10597 10597 10598 10599 10601 10604 10606 10608 10611 10614
10205 10206 10207 10209 10211 10213 10217 10221 10225 10231 10236 10239 10244 10251 10258 10263 10270 10278 10285 10292 10299 10305 10311 10318 10325 10332 10339 10345 10352 10361 10369 10376 10382 10388 10393 10398 10401 10405 10410 10415 10420 10425 10431 10437 10443 10448 10455 10460 10465 10470 10472 10473 10478 10489 10499 10503 10504 10504 10503 10503 10508 10516 10522 10526 10530 10536 10541 10548 10556 10561 10568 10576 10581 10586 10589 10590 10592 10593 10592 10592 10592 10594 10596 10599 10601 10604 10608 10611
10204 10204 10206 10207 10209 10212 10214 10218 10222 10227 10230 10235 10242 10249 10254 10260 10268 10276 10283 10290 10297 10303 10310 10317 10323 10331 10337 10343 10350 10358 10365 10372 10378 10384 10389 10392 10395 10399 10404 10410 10415 10419 10424 10431 10437 10444 10450 10454 10457 10461 10465 10471 10481 10492 10495 10493 10494 10496 10498 10503 10509 10516 10519 10521 10526 10533 10540 10547 10553 10559 10566 10572 10574 10578 10581 10582 10584 10586 10587 10587 10588 10590 10592 10594 10596 10600 10604 10608
10203 10204 10205 10207 10209 10211 10214 10217 10220 10223 10227 10233 10241 10247 10254 10261 10268 10274 10282 10288 10295 10302 10308 10314 10322 10329 10335 10341 10347 10355 10362 10368 10374 10379 10384 10387 10389 10393 10398 10404 10408 10413 10420 10427 10433 10438 10443 10446 10450 10456 10463 10471 10478 10481 10480 10481 10484 10487 10490 10496 10500 10505 10510 10515 10523 10532 10538 10544 10550 10556 10562 10565 10568 10572 10574 10576 10578 10580 10581 10583 10584 10586 10588 10589 10591 10594 10599 10603
10203 10203 10205 10206 10209 10211 10214 10217 10220 10223 10228 10235 10241 10247 10254 10261 10267 10274 10281 10287 10293 10299 10305 10311 10319 10326 10332 10338 10345 10352 10359 10364 10369 10374 10378 10380 10382 10386 10392 10398 10402 10408 10415 10421 10426 10431 10436 10440 10446 10452 10459 10466 10469 10471 10472 10474 10476 10479 10483 10487 10491 10497 10504 10512 10519 10525 10530 10537 10544 10550 10557 10561 10565 10568 10570 10572 10574 10576 10578 10580 10582 10583 10583 10584 10586 10589 10593 10597
10204 10204 10205 10207 10209 10211 10214 10218 10222 10226 10232 10237 10242 10247 10253 10259 10266 10272 10278 10285 10292 10297 10302 10309 10316 10323 10329 10336 10342 10348 10353 10358 10363 10367 10371 10373 10375 10380 10387 10394 10399 10406 10412 10417 10422 10427 10431 10436 10440 10445 10452 10457 10461 10463 10464 10466 10470 10475 10480 10483 10487 10493 10501 10507 10511 10514 10520 10529 10538 10545 10552 10557 10559 10562 10566 10568 10570 10573 10576 10578 10579 10579 10579 10581 10583 10586 10589 10592
10205 10205 10206 10207 10209 10212 10215 10219 10222 10227 10232 10236 10241 10246 10252 10258 10264 10270 10277 10284 10290 10295 10302 10310 10316 10323 10329 10334 10339 10345 10349 10354 10358 10361 10364 10367 10371 10378 10384 10390 10397 10403 10408 10412 10416 10421 10425 10429 10433 10439 10446 10452 10455 10458 10460 10464 10469 10474 10479 10482 10485 10490 10497 10502 10505 10509 10518 10527 10535 10542 10549 10552 10554 10557 10561 10563 10566 10570 10573 10574 10574 10574 10575 10577 10580 10582 10584 10587
10207 10207 10207 10208 10210 10212 10215 10218 10222 10226 10230 10234 10240 10246 10251 10256 10262 10270 10278 10284 10290 10297 10304 10310 10317 10323 10329 10334 10338 10343 10347 10350 10354 10357 10360 10364 10370 10377 10383 10388 10394 10398 10401 10405 10410 10415 10420 10424 10428 10435 10440 10444 10447 10450 10454 10458 10464 10471 10477 10479 10481 10487 10494 10498 10500 10507 10516 10524 10531 10538 10544 10548 10550 10553 10556 10559 10562 10566 10567 10568 10568 10569 10571 10573 10576 10578 10580 10582
10209 10209 10210 10211 10212 10213 10216 10219 10222 10226 10231 10235 10241 10246 10251 10257 10265 10273 10280 10286 10292 10298 10303 10309 10315 10322 10328 10334 10338 10342 10345 10348 10351 10353 10357 10362 10369 10375 10380 10385 10389 10392 10396 10401 10406 10412 10416 10421 10426 10430 10433 10436 10440 10443 10446 10450 10457 10464 10469 10472 10476 10481 10487 10491 10496 10504 10512 10520 10527 10534 10538 10542 10545 10548 10552 10555 10558 10560 10561 10562 10563 10565 10568 10571 10573 10575 10576 10578
10211 10212 10212 10213 10215 10216 10218 10221 10224 10228 10233 10238 10243 10247 10253 10260 10268 10275 10281 10287 10292 10297 10302 10307 10314 10320 10326 10331 10335 10339 10342 10345 10347 10351 10356 10362 10367 10371 10376 10380 10385 10389 10393 10398 10403 10408 10412 10416 10419 10421 10425 10430 10435 10438 10442 10446 10451 10456 10459 10463 10468 10475 10482 10488 10495 10502 10510 10517 10524 10529 10533 10537 10540 10544 10548 10550 10553 10555 10556 10558 10561 10563 10566 10568 10570 10571 10572 10573
10214 10214 10215 10216 10218 10219 10221 10224 10227 10231 10235 10240 10245 10250 10256 10263 10270 10276 10282 10288 10293 10298 10303 10308 10313 10318 10322 10325 10330 10334 10337 10340 10344 10349 10355 10359 10364 10368 10373 10377 10381 10385 10390 10395 10399 10403 10406 10408 10411 10415 10420 10424 10428 10432 10437 10442 10446 10450 10452 10456 10463 10471 10478 10485 10492 10499 10507 10514 10519 10523 10528 10532 10536 10541 10544 10547 10549 10551 10553 10555 10558 10560 10562 10563 10565 10566 10567 10568
10218 10218 10218 10219 10221 10222 10224 10226 10230 10234 10238 10243 10248 10254 10260 10266 10272 10278 10283 10288 10292 10297 10302 10308 10312 10316 10318 10321 10325 10329 10332 10337 10342 10347 10352 10357 10362 10366 10370 10374 10379 10382 10386 10390 10394 10397 10400 10402 10405 10410 10414 10418 10424 10429 10432 10436 10440 10444 10448 10453 10460 10468 10475 10482 10489 10496 10504 10510 10514 10519 10525 10530 10534 10538 10541 10543 10546 10548 10550 10552 10554 10556 10557 10558 10560 10561 10562 10564
10223 10222 10222 10222 10224 10226 10228 10230 10232 10235 10240 10244 10250 10256 10261 10267 10272 10277 10282 10286 10291 10295 10300 10304 10308 10311 10315 10318 10322 10326 10330 10335 10340 10345 10350 10355 10360 10364 10368 10372 10376 10379 10382 10386 10388 10392 10394 10396 10399 10405 10409 10414 10421 10426 10428 10431 10435 10440 10444 10450 10457 10464 10471 10479 10487 10494 10500 10506 10512 10518 10524 10528 10531 10533 10536 10539 10541 10543 10545 10548 10549 10551 10552 10554 10555 10557 10559 10561
10228 10227 10227 10227 10228 10229 10231 10234 10236 10239 10243 10247 10251 10256 10261 10266 10271 10275 10280 10285 10290 10294 10298 10301 10304 10308 10312 10316 10321 10326 10331 10335 10339 10343 10348 10352 10356 10360 10365 10369 10372 10374 10378 10381 10384 10387 10389 10391 10396 10401 10405 10411 10420 10424 10425 10427 10432 10437 10442 10448 10454 10461 10468 10477 10484 10490 10497 10503 10510 10515 10518 10520 10524 10527 10529 10532 10535 10537 10540 10542 10544 10546 10547 10549 10552 10554 10556 10558